Terminal Aerodrome Forecast
Issued by NWS Sioux Falls, SD

Home | Current Version | Previous Version | Text Only | Print | Product List | Glossary Off
Versions: 1 2 3 4 5 6 7 8 9 10 11 12 13 14 15 16 17 18 19 20 21 22 23 24 25 26

000
FTUS43 KFSD 011120
TAFSUX
TAF
KSUX 011120Z 0112/0212 15003KT P6SM FEW250
      TEMPO 0112/0113 1SM BR
     FM011500 20009KT P6SM SCT120 SCT250
     FM012000 23013G20KT P6SM SCT050 SCT120 PROB30 0121/0123 4SM
      TSRA BKN040CB
     FM012300 22012KT 6SM TSRA BKN040CB
     FM020200 17007KT P6SM SCT100 BKN250=

USA.gov is the U.S. government's official web portal to all federal, state and local government web resources and services.